Weather History for Opa Locka, FL

Change the Weather History Date:

Sunday, January 20, 2013

  Actual Average Record
Temperature  
Mean Temperature 72 °F -  
Max Temperature 82 °F 76 °F 89 °F (1987)
Min Temperature 62 °F 57 °F 32 °F (1977)
Cooling Degree Days 7    
Growing Degree Days 22 (Base 50)    
Moisture  
Dew Point 64 °F    
Average Humidity 87    
Maximum Humidity 100    
Minimum Humidity 51    
Precipitation  
Precipitation 0.01 in - - ()
Sea Level Pressure  
Sea Level Pressure 30.09 in    
Wind  
Wind Speed 3 mph (North)    
Max Wind Speed 9 mph    
Max Gust Speed -    
Visibility 8 miles    
Events Fog    
Averages and records for this station are not official NWS values.
T = Trace of Precipitation, MM = Missing Value Source: NWS Daily Summary

Daily Weather History Graph

Daily Weather History Graph

Search for Another Location

Airport:

Trip Planner

Search our weather history database for the weather conditions in past years. The results will help you decide how hot, cold, wet, or windy it might be!

Date:

Astronomy

Jan. 20, 2013 Rise Set
Actual Time 7:09 AM EST 5:55 PM EST
Civil Twilight 6:44 AM EST 6:20 PM EST
Nautical Twilight 6:16 AM EST 6:48 PM EST
Astronomical Twilight 5:48 AM EST 7:16 PM EST
Moon 12:54 PM EST (1/20) 1:43 AM EST (1/20)
Length of Visible Light 11h 35m
Length of Day
10h 46m
Waxing Gibbous, 66% of the Moon is Illuminated
Jan 20
Waxing Gibbous
Jan 26
Full
Feb 3
Last Quarter
Feb 10
New
Feb 17
First Quarter

Hourly Weather History & Observations

Time (EST) Temp. Heat Index Dew Point Humidity Pressure Visibility Wind Dir Wind Speed Gust Speed Precip Events Conditions
12:04 AM 66.2 °F - 64.4 °F 94% 30.12 in 10.0 mi NNW 5.8 mph - N/A   Mostly Cloudy
12:53 AM 66.0 °F - 64.9 °F 96% 30.12 in 7.0 mi NNW 3.5 mph - N/A   Overcast
1:21 AM 64.4 °F - 64.4 °F 100% 30.10 in 10.0 mi North 3.5 mph - N/A   Scattered Clouds
1:53 AM 63.0 °F - 63.0 °F 100% 30.11 in 10.0 mi Calm Calm - N/A   Mostly Cloudy
2:29 AM 64.4 °F - 64.4 °F 100% 30.09 in 1.8 mi Calm Calm - 0.01 in   Overcast
2:37 AM 62.6 °F - 62.6 °F 100% 30.09 in 0.5 mi North 3.5 mph - 0.01 in Fog Fog
2:53 AM 63.0 °F - 63.0 °F 100% 30.09 in 0.5 mi Calm Calm - 0.01 in Fog Fog
3:32 AM 62.6 °F - 62.6 °F 100% 30.08 in 1.5 mi NNW 4.6 mph - N/A   Overcast
3:49 AM 62.6 °F - 62.6 °F 100% 30.08 in 3.0 mi North 3.5 mph - N/A   Overcast
3:53 AM 63.0 °F - 63.0 °F 100% 30.08 in 6.0 mi Calm Calm - N/A   Overcast
4:33 AM 62.6 °F - 62.6 °F 100% 30.09 in 10.0 mi Calm Calm - N/A   Overcast
4:53 AM 63.0 °F - 63.0 °F 100% 30.09 in 10.0 mi Calm Calm - N/A   Overcast
5:41 AM 64.4 °F - 64.4 °F 100% 30.10 in 10.0 mi NW 6.9 mph - N/A   Mostly Cloudy
5:53 AM 64.0 °F - 64.0 °F 100% 30.11 in 10.0 mi NW 6.9 mph - N/A   Overcast
6:13 AM 64.4 °F - 64.4 °F 100% 30.10 in 9.0 mi WNW 5.8 mph - N/A   Overcast
6:53 AM 63.0 °F - 63.0 °F 100% 30.12 in 1.0 mi NNW 5.8 mph - N/A   Overcast
7:53 AM 64.0 °F - 64.0 °F 100% 30.14 in 2.0 mi Calm Calm - N/A   Overcast
8:53 AM 66.0 °F - 66.0 °F 100% 30.16 in 0.5 mi North 3.5 mph - N/A Fog Fog
9:00 AM 64.4 °F - 64.4 °F 100% 30.15 in 10.0 mi Calm Calm - N/A   Overcast
9:36 AM 69.8 °F - 66.2 °F 88% 30.16 in 8.0 mi Calm Calm - N/A   Clear
9:53 AM 73.0 °F - 66.9 °F 81% 30.17 in 8.0 mi NE 3.5 mph - N/A   Clear
10:53 AM 75.0 °F - 66.0 °F 73% 30.14 in 10.0 mi WNW 4.6 mph - N/A   Clear
11:53 AM 78.1 °F - 64.9 °F 64% 30.11 in 10.0 mi Variable 3.5 mph - N/A   Clear
12:53 PM 80.1 °F 81.5 °F 63.0 °F 56% 30.07 in 10.0 mi West 3.5 mph - N/A   Partly Cloudy
1:53 PM 82.0 °F 83.0 °F 62.1 °F 51% 30.04 in 10.0 mi NNE 5.8 mph - N/A   Partly Cloudy
2:53 PM 79.0 °F - 64.9 °F 62% 30.03 in 10.0 mi East 5.8 mph - N/A   Mostly Cloudy
3:53 PM 78.8 °F - 64.4 °F 61% 30.03 in 10.0 mi East 5.8 mph - N/A   Overcast
4:53 PM 77.0 °F - 64.9 °F 66% 30.05 in 10.0 mi ESE 9.2 mph - N/A   Overcast
5:53 PM 75.0 °F - 64.0 °F 69% 30.05 in 10.0 mi ESE 8.1 mph - N/A   Mostly Cloudy
6:53 PM 73.0 °F - 64.0 °F 73% 30.05 in 10.0 mi ENE 4.6 mph - N/A   Partly Cloudy
7:53 PM 73.0 °F - 64.9 °F 76% 30.06 in 10.0 mi Calm Calm - N/A   Partly Cloudy
8:53 PM 70.0 °F - 64.9 °F 84% 30.07 in 10.0 mi Calm Calm - N/A   Clear
9:53 PM 70.0 °F - 66.0 °F 87% 30.07 in 10.0 mi Calm Calm - N/A   Mostly Cloudy
10:53 PM 70.0 °F - 66.9 °F 90% 30.07 in 10.0 mi North 4.6 mph - N/A   Partly Cloudy
11:53 PM 70.0 °F - 66.9 °F 90% 30.06 in 10.0 mi North 5.8 mph - N/A   Mostly Cloudy